Temp
5 5 5 5 5 5 5 5 4 2 2 2 1 3 2 6 7 7 6 4 4 5 5 4 3 5 5 5 3 2 2 3 4 2 -4 -4 -2 2 3 6 5 4 5 5
4 4 5 5 5 5 4 4 3 1 1 3 3 2 5 6 6 6 4 3 3 3 4 4 4 4 5 4 2 1 1 2 4 4 -1 -5 -3 -1 1 3 4 4 5 1
4 4 4 5 5 5 4 4 2 -1 -2 -1 0 3 3 4 4 4 5 3 3 2 3 3 3 4 2 0 1 1 1 3 5 7 5 1 -3 -1 1 4 3 3 5 -4
4 4 4 4 4 4 4 4 3 3 1 -1 0 1 2 3 3 3 2 2 2 3 4 4 4 3 3 -1 -1 -1 1 2 3 4 4 1 -6 -7 -2 2 3 3 -4 -9
4 4 4 3 4 3 4 4 3 2 2 3 1 1 3 3 3 3 3 2 3 3 2 3 3 2 2 1 -2 -1 -0 1 -0 1 0 0 -8 -10 -9 -10 -11 -4 -7 -12
4 3 3 3 3 3 3 3 3 3 3 0 1 2 2 2 3 2 0 0 -1 0 0 -3 -3 -3 -5 -5 -2 -2 -1 -1 0 2 -1 -2 -6 -11 -10 -11 -12 -11 -13 -12
4 3 3 3 3 4 3 3 3 2 3 1 2 1 0 1 1 1 -2 -3 -2 -4 -4 -4 -4 -5 -5 -6 -5 -5 -3 -1 -0 -1 -1 0 -11 -11 -11 -12 -12 -12 -12 -12
2 3 3 3 4 3 3 3 3 3 2 -4 -5 -9 -4 -4 -3 -2 -4 -5 -5 -5 -4 -2 -1 -2 -3 -5 -5 -5 -5 -3 -1 -1 -8 -11 -11 -12 -12 -13 -13 -12 -13 -13
1 1 2 2 3 3 2 2 2 2 1 -12 -14 -10 -7 -7 -6 -3 -5 -6 -5 -5 -3 -1 -0 0 -3 -3 -5 -6 -5 -6 -4 -3 -5 -8 -13 -13 -12 -14 -12 -13 -13 -13
0 1 1 1 2 2 -0 1 0 -1 -14 -15 -14 -14 -12 -12 -9 -7 -6 -8 -6 -5 -2 -1 -3 -5 -6 -10 -11 -11 -10 -11 -10 -8 -11 -13 -13 -13 -11 -12 -13 -13 -13 -14
-1 -1 -0 -0 -2 -2 -2 -3 -3 -3 -13 -16 -15 -15 -15 -14 -13 -10 -10 -7 -7 -7 -4 -4 -6 -7 -9 -11 -13 -12 -13 -13 -12 -11 -11 -13 -14 -12 -13 -14 -14 -14 -14 -15
-3 -3 -2 -2 -2 -3 -3 -4 -6 -6 -10 -14 -14 -15 -14 -15 -14 -14 -10 -9 -10 -10 -7 -8 -8 -10 -11 -11 -12 -12 -14 -15 -14 -13 -12 -13 -14 -13 -16 -16 -16 -16 -16 -16
-6 -4 -5 -5 -4 -5 -4 -8 -9 -9 -12 -13 -14 -14 -13 -12 -11 -11 -12 -11 -11 -11 -11 -9 -10 -12 -12 -12 -14 -13 -13 -13 -14 -14 -13 -15 -15 -16 -16 -17 -17 -17 -17 -17
-9 -8 -7 -7 -7 -7 -7 -7 -9 -9 -10 -12 -13 -12 -13 -12 -10 -10 -10 -11 -11 -11 -11 -12 -12 -12 -11 -13 -14 -14 -15 -14 -16 -15 -15 -16 -14 -16 -17 -17 -18 -18 -18 -18
-7 -7 -6 -7 -7 -7 -7 -7 -9 -9 -7 -11 -12 -11 -11 -11 -10 -9 -10 -10 -11 -11 -14 -15 -16 -14 -13 -12 -14 -16 -15 -17 -18 -19 -17 -17 -17 -18 -18 -18 -19 -19 -19 -19
-7 -6 -5 -5 -5 -5 -5 -6 -7 -6 -8 -9 -13 -11 -10 -9 -10 -8 -9 -9 -10 -12 -14 -15 -16 -15 -15 -17 -18 -16 -16 -17 -17 -18 -18 -18 -18 -18 -19 -19 -19 -20 -19 -20
-5 -6 -6 -5 -5 -4 -5 -8 -7 -6 -6 -8 -11 -10 -10 -9 -10 -10 -10 -10 -11 -12 -14 -14 -13 -13 -12 -20 -21 -15 -16 -17 -18 -18 -18 -19 -19 -19 -19 -20 -20 -20 -20 -20
-3 -4 -4 -5 -5 -5 -6 -7 -7 -6 -7 -9 -14 -12 -12 -13 -14 -13 -12 -12 -12 -13 -14 -14 -15 -12 -12 -21 -16 -16 -17 -17 -18 -19 -19 -19 -19 -19 -20 -20 -20 -20 -21 -21
-2 -2 -3 -4 -4 -5 -7 -6 -6 -6 -8 -14 -16 -18 -17 -14 -14 -14 -13 -12 -15 -14 -14 -16 -15 -16 -20 -18 -16 -17 -18 -18 -19 -19 -19 -19 -19 -19 -20 -20 -20 -21 -21 -21
-1 -2 -3 -5 -6 -6 -5 -5 -5 -7 -11 -14 -17 -17 -18 -17 -16 -15 -14 -13 -17 -19 -19 -15 -17 -20 -15 -16 -16 -17 -18 -18 -18 -19 -19 -19 -20 -20 -20 -21 -21 -21 -21 -21
-1 -2 -5 -5 -5 -5 -5 -9 -12 -12 -15 -17 -17 -18 -18 -17 -20 -21 -17 -20 -16 -18 -17 -17 -17 -18 -15 -16 -17 -17 -18 -18 -18 -19 -19 -19 -20 -20 -21 -21 -21 -21 -21 -22
-1 -3 -4 -5 -5 -7 -11 -14 -12 -16 -18 -17 -18 -18 -18 -18 -17 -17 -15 -18 -16 -17 -15 -18 -18 -18 -15 -16 -16 -17 -18 -18 -18 -19 -20 -20 -20 -21 -21 -21 -21 -22 -22 -22
-2 -4 -5 -8 -10 -14 -15 -16 -16 -17 -17 -17 -18 -18 -18 -17 -17 -16 -17 -18 -19 -15 -18 -16 -18 -14 -15 -15 -16 -17 -18 -18 -18 -19 -19 -20 -21 -21 -22 -22 -22 -22 -22 -22
-4 -8 -14 -14 -15 -15 -16 -17 -16 -16 -17 -18 -18 -18 -17 -16 -16 -16 -17 -17 -17 -18 -18 -17 -17 -13 -14 -15 -16 -17 -18 -18 -19 -19 -19 -20 -20 -21 -21 -21 -22 -22 -22 -22
-8 -9 -14 -15 -14 -14 -15 -16 -17 -17 -17 -18 -18 -17 -16 -14 -17 -14 -16 -16 -17 -15 -16 -16 -12 -13 -14 -15 -16 -17 -18 -18 -19 -19 -19 -20 -20 -21 -20 -21 -21 -22 -22 -22
-9 -11 -13 -12 -13 -12 -14 -15 -16 -16 -17 -18 -17 -17 -17 -18 -18 -16 -16 -16 -15 -13 -12 -12 -13 -14 -15 -16 -17 -17 -17 -18 -18 -19 -19 -20 -20 -20 -21 -21 -21 -22 -22 -22
-9 -11 -12 -12 -14 -13 -14 -14 -14 -15 -16 -15 -14 -16 -16 -14 -15 -13 -14 -12 -12 -12 -12 -13 -13 -14 -15 -15 -16 -17 -17 -18 -18 -18 -18 -19 -19 -20 -21 -21 -20 -21 -22 -22
Height
1490 1489 1489 1488 1488 1485 1483 1481 1480 1479 1480 1483 1478 1473 1469 1465 1462 1463 1462 1460 1457 1454 1452 1449 1449 1439 1436 1431 1436 1439 1438 1439 1429 1435 1446 1446 1444 1436 1435 1426 1436 1437 1433 1425
1484 1483 1482 1482 1481 1481 1481 1478 1474 1474 1474 1471 1470 1466 1462 1460 1459 1458 1458 1457 1455 1452 1448 1445 1437 1434 1430 1429 1432 1432 1433 1435 1425 1425 1444 1448 1444 1433 1429 1424 1427 1424 1430 1442
1478 1477 1477 1476 1477 1476 1475 1472 1469 1471 1470 1469 1467 1463 1459 1457 1454 1454 1454 1450 1450 1449 1446 1444 1436 1431 1429 1428 1430 1431 1430 1423 1410 1395 1401 1418 1438 1430 1422 1417 1426 1422 1407 1455
1472 1472 1471 1471 1472 1473 1472 1466 1461 1458 1462 1464 1460 1462 1455 1452 1451 1450 1450 1446 1445 1443 1437 1435 1430 1427 1425 1428 1429 1430 1429 1419 1415 1408 1409 1418 1448 1454 1434 1420 1419 1420 1451 1472
1467 1466 1466 1466 1466 1467 1464 1459 1457 1455 1452 1449 1450 1452 1443 1445 1444 1445 1441 1441 1437 1438 1436 1434 1427 1431 1428 1425 1431 1430 1427 1419 1420 1412 1416 1418 1456 1465 1461 1466 1471 1446 1466 1490
1462 1461 1460 1460 1460 1459 1455 1453 1453 1453 1443 1444 1447 1438 1437 1434 1435 1433 1433 1435 1436 1434 1433 1435 1435 1434 1436 1435 1430 1429 1427 1424 1420 1409 1419 1426 1449 1486 1483 1486 1488 1483 1491 1498
1458 1455 1453 1452 1452 1451 1448 1447 1447 1445 1435 1439 1436 1433 1433 1429 1430 1430 1432 1434 1434 1436 1433 1435 1434 1435 1436 1436 1436 1435 1431 1424 1419 1418 1420 1418 1496 1493 1492 1493 1495 1495 1497 1498
1452 1449 1447 1444 1442 1443 1440 1440 1441 1437 1428 1434 1435 1437 1438 1434 1432 1432 1435 1436 1436 1435 1434 1432 1426 1429 1431 1440 1441 1438 1436 1430 1421 1419 1464 1488 1492 1496 1499 1501 1499 1499 1499 1498
1449 1444 1440 1437 1434 1433 1432 1431 1431 1429 1426 1446 1451 1447 1441 1441 1440 1430 1437 1437 1435 1435 1431 1426 1417 1411 1430 1434 1442 1445 1443 1439 1434 1429 1441 1468 1508 1500 1498 1499 1495 1499 1498 1496
1446 1441 1437 1434 1429 1425 1425 1424 1423 1424 1435 1453 1452 1452 1454 1451 1447 1441 1442 1441 1438 1435 1429 1423 1428 1439 1449 1470 1479 1478 1466 1469 1469 1460 1482 1501 1507 1498 1493 1493 1502 1498 1497 1496
1445 1441 1436 1432 1427 1424 1423 1421 1421 1423 1442 1459 1457 1456 1456 1454 1454 1452 1448 1442 1444 1442 1437 1439 1448 1452 1467 1486 1498 1496 1499 1495 1494 1488 1490 1503 1506 1498 1500 1507 1501 1499 1496 1494
1448 1443 1437 1432 1427 1425 1424 1423 1425 1425 1433 1462 1464 1463 1461 1461 1459 1458 1453 1456 1456 1455 1450 1455 1461 1473 1482 1488 1498 1503 1511 1516 1513 1513 1507 1508 1508 1506 1507 1506 1502 1498 1495 1492
1453 1447 1442 1438 1433 1429 1428 1429 1435 1436 1446 1464 1466 1467 1466 1464 1461 1460 1461 1460 1460 1460 1460 1464 1474 1487 1492 1499 1515 1513 1514 1514 1515 1509 1508 1505 1504 1505 1503 1502 1500 1497 1494 1489
1457 1455 1451 1447 1443 1441 1440 1437 1440 1440 1448 1466 1480 1475 1470 1470 1467 1464 1464 1465 1466 1466 1466 1473 1483 1490 1499 1511 1518 1520 1522 1518 1520 1511 1507 1507 1501 1504 1502 1498 1496 1493 1489 1486
1457 1452 1454 1454 1454 1451 1451 1448 1446 1447 1451 1465 1477 1479 1479 1477 1474 1473 1472 1470 1470 1470 1475 1487 1498 1501 1504 1509 1514 1524 1524 1525 1526 1521 1514 1514 1508 1503 1500 1496 1492 1489 1485 1479
1467 1457 1456 1457 1457 1455 1457 1455 1460 1458 1457 1464 1478 1486 1487 1484 1482 1479 1478 1477 1477 1480 1488 1498 1503 1506 1507 1521 1527 1526 1525 1524 1523 1518 1513 1509 1504 1500 1498 1492 1488 1483 1479 1475
1477 1473 1469 1462 1461 1459 1458 1466 1468 1466 1466 1470 1483 1490 1493 1489 1488 1487 1488 1488 1488 1490 1497 1505 1507 1508 1510 1523 1537 1524 1522 1519 1516 1513 1509 1502 1499 1494 1491 1487 1482 1478 1473 1469
1483 1480 1477 1474 1472 1469 1469 1470 1468 1468 1468 1474 1489 1499 1499 1499 1498 1496 1495 1496 1497 1500 1506 1511 1511 1512 1515 1531 1525 1522 1519 1515 1511 1508 1505 1501 1495 1491 1487 1482 1477 1472 1467 1462
1485 1483 1481 1478 1476 1475 1477 1475 1475 1474 1477 1491 1508 1518 1517 1509 1508 1506 1503 1502 1507 1510 1512 1515 1516 1517 1530 1524 1522 1518 1515 1512 1507 1502 1499 1495 1491 1486 1481 1477 1472 1467 1462 1457
1489 1485 1484 1485 1487 1483 1481 1482 1483 1486 1496 1508 1522 1523 1522 1520 1513 1511 1508 1508 1513 1523 1521 1517 1516 1524 1521 1521 1519 1515 1511 1508 1504 1499 1492 1489 1484 1480 1475 1471 1467 1463 1458 1453
1492 1492 1494 1492 1489 1489 1489 1495 1503 1511 1520 1527 1529 1528 1526 1523 1523 1522 1519 1520 1516 1528 1525 1522 1521 1525 1520 1518 1515 1511 1508 1504 1501 1497 1492 1488 1483 1476 1470 1465 1462 1458 1454 1449
1499 1498 1497 1496 1498 1499 1505 1522 1525 1531 1541 1536 1534 1533 1530 1528 1525 1525 1522 1523 1519 1531 1522 1526 1530 1521 1518 1514 1510 1506 1503 1500 1495 1492 1487 1482 1477 1473 1467 1461 1456 1452 1448 1443
1500 1502 1505 1514 1520 1528 1545 1551 1545 1545 1544 1542 1539 1537 1532 1530 1528 1527 1526 1530 1535 1524 1528 1528 1524 1517 1514 1510 1506 1502 1499 1495 1491 1486 1481 1477 1472 1467 1462 1456 1452 1448 1443 1439
1509 1519 1533 1539 1553 1557 1558 1557 1553 1550 1545 1542 1540 1537 1536 1532 1531 1530 1534 1531 1529 1536 1541 1531 1517 1514 1510 1507 1504 1499 1495 1491 1486 1482 1476 1472 1466 1461 1457 1452 1447 1443 1438 1434
1528 1537 1554 1560 1561 1559 1556 1554 1551 1549 1544 1543 1541 1538 1537 1535 1535 1532 1533 1537 1541 1534 1534 1521 1516 1512 1508 1504 1500 1496 1492 1487 1482 1478 1472 1467 1462 1457 1452 1448 1444 1439 1435 1430
1545 1553 1560 1561 1559 1558 1555 1553 1551 1547 1544 1543 1543 1540 1540 1544 1544 1543 1545 1547 1542 1529 1522 1518 1513 1508 1505 1500 1496 1492 1487 1483 1478 1474 1469 1464 1458 1453 1448 1443 1440 1436 1431 1426
1560 1566 1564 1563 1561 1560 1558 1554 1550 1548 1545 1545 1543 1548 1549 1545 1544 1542 1539 1536 1530 1524 1518 1515 1511 1505 1500 1496 1492 1487 1483 1479 1474 1469 1465 1460 1455 1451 1445 1440 1436 1432 1427 1423
Wind_Speed
26 24 21 19 16 17 15 10 3 7 10 4 5 4 7 4 7 11 8 6 8 10 7 5 7 10 8 10 3 7 6 3 6 8 1 2 2 4 7 7 6 3 2 5
25 24 21 18 15 16 14 6 7 10 20 3 4 4 7 7 4 9 5 5 7 6 4 7 11 8 3 11 8 6 6 6 2 3 2 3 6 6 4 2 4 8 5 3
24 22 20 18 16 15 16 8 2 3 15 5 2 3 7 8 9 8 8 5 6 3 7 9 6 10 3 3 4 5 8 4 7 10 0 4 2 4 11 10 5 5 15 7
21 19 16 14 13 14 16 9 5 6 3 7 8 7 5 6 7 9 6 3 8 10 8 7 9 9 7 3 4 3 4 6 6 13 8 5 12 13 7 15 8 5 6 10
20 20 18 17 15 13 19 9 5 6 5 6 8 8 6 11 9 6 6 11 11 6 9 8 12 5 3 4 3 4 1 3 2 4 7 9 8 20 16 14 12 7 11 11
20 22 22 22 21 19 18 20 21 14 7 4 4 6 7 9 6 9 6 5 1 7 4 4 3 3 7 7 2 4 3 2 2 3 7 9 7 12 9 7 11 4 8 3
24 24 23 24 24 28 29 27 20 8 10 6 7 2 3 6 4 7 2 1 2 3 1 4 3 8 10 11 9 8 4 2 1 1 2 4 6 8 11 10 9 10 8 7
22 23 23 22 24 28 30 31 30 12 6 4 4 9 4 9 5 1 2 5 5 6 4 3 4 4 4 5 6 10 7 3 1 2 4 7 7 11 4 4 5 4 3 6
19 19 20 19 21 24 26 32 33 24 7 4 7 5 9 4 4 1 4 6 5 5 2 3 4 1 5 3 1 13 11 14 4 4 3 3 7 13 3 4 3 13 15 15
20 20 20 18 18 15 14 18 20 10 13 14 9 5 4 7 5 3 4 9 9 7 2 1 4 3 6 6 7 9 6 5 8 8 5 5 8 21 17 2 6 19 18 17
21 20 19 16 13 11 6 4 4 3 12 21 22 20 11 8 8 3 8 4 7 6 4 4 3 4 4 5 6 4 7 6 5 6 3 2 21 5 5 7 14 20 20 20
24 22 18 17 12 6 6 14 19 24 32 19 25 25 22 15 7 6 11 4 6 7 2 5 4 6 4 7 3 9 6 3 3 5 1 5 18 4 17 21 17 20 21 21
26 27 22 26 23 19 20 40 43 49 36 31 25 19 26 23 18 11 4 6 6 7 8 4 3 8 5 3 6 4 1 10 2 6 4 22 16 18 28 28 22 23 24 24
6 20 37 37 24 13 7 17 19 21 14 7 11 24 27 23 19 12 12 14 13 15 18 9 4 4 9 4 7 8 6 5 7 6 9 24 6 30 33 31 24 26 25 25
33 2 5 17 21 30 32 19 18 15 11 8 7 17 24 25 25 25 25 28 27 19 10 6 4 5 4 4 4 3 7 3 3 3 22 12 23 33 27 26 30 27 28 31
35 31 15 8 5 9 11 10 16 15 15 8 3 9 24 21 25 30 32 31 31 20 8 6 5 5 3 3 2 7 8 10 17 13 22 23 29 19 23 29 28 29 27 26
26 31 39 33 25 15 15 8 6 7 9 6 7 4 14 16 19 23 20 23 18 12 7 7 3 4 6 3 1 19 21 19 23 16 19 24 16 29 29 28 27 29 28 26
15 18 21 26 28 34 44 35 11 7 11 10 3 3 8 24 13 9 14 9 10 12 6 4 4 3 5 2 8 19 21 21 18 22 21 25 24 25 30 27 28 28 30 28
12 10 15 16 18 14 18 23 28 37 18 8 8 4 3 17 14 10 7 7 4 5 5 4 3 1 2 4 13 20 20 16 22 28 27 23 25 27 29 29 30 27 30 30
14 14 7 9 11 14 13 10 9 15 15 12 7 10 3 11 11 11 6 6 1 2 2 6 2 2 2 5 16 19 18 19 19 26 28 28 29 29 31 31 27 31 27 34
13 10 7 13 16 11 9 10 11 12 7 11 9 11 5 12 4 3 8 2 3 3 3 2 1 1 2 12 21 19 18 18 21 23 23 25 26 28 32 31 29 27 30 29
10 7 10 13 13 9 9 4 6 8 3 10 8 9 7 5 6 3 5 1 2 1 6 3 3 3 10 22 26 23 21 23 25 24 25 26 24 26 28 27 29 28 31 32
8 9 8 11 12 15 7 8 4 4 10 10 13 7 7 6 6 4 3 6 1 8 3 1 3 5 23 28 29 26 24 25 26 27 26 25 25 25 24 26 24 24 30 29
12 10 9 5 6 4 3 2 4 6 10 14 15 6 4 4 5 2 4 2 2 5 5 3 3 20 30 28 30 26 27 27 27 28 27 28 28 28 27 26 25 25 26 29
9 8 6 4 2 3 6 6 6 7 13 10 6 5 3 3 3 1 3 7 4 1 3 3 21 29 29 31 29 27 26 26 28 27 27 29 29 27 27 26 25 23 24 27
8 10 5 3 3 5 7 9 7 12 7 5 3 3 3 4 0 5 1 2 3 4 8 25 27 30 31 30 28 26 26 26 27 27 27 28 27 26 27 28 26 25 23 26
6 6 9 3 3 5 9 11 14 12 7 4 3 5 2 4 3 2 2 3 3 21 27 28 28 29 30 27 26 26 25 26 26 28 28 27 26 26 27 29 27 26 25 26
Wind_Direction
290 291 292 291 290 284 281 262 241 228 191 154 219 202 191 241 266 256 252 260 257 255 269 249 243 253 218 69 127 172 200 220 240 204 103 19 317 218 182 194 201 240 332 257
291 288 282 282 281 278 275 251 237 216 194 221 216 251 247 259 266 265 201 245 218 199 237 276 238 241 238 223 167 203 173 205 220 203 1 360 213 197 223 67 66 205 178 250
286 287 281 277 273 268 259 244 243 178 206 247 265 279 273 261 227 247 256 254 217 205 264 222 267 265 283 344 232 274 171 236 231 233 312 103 196 222 203 195 196 192 224 115
285 280 273 269 274 272 254 229 236 218 199 223 209 228 226 235 261 223 205 234 220 248 269 269 244 265 257 188 222 192 215 246 239 270 285 101 61 24 335 222 247 229 17 73
287 279 268 266 261 252 254 242 216 214 265 229 192 208 240 241 230 222 222 230 249 253 258 258 290 303 245 246 132 199 215 266 31 270 80 97 66 23 21 32 358 14 76 67
302 288 276 269 262 248 251 254 259 265 263 186 212 218 212 227 190 227 227 218 240 242 271 339 323 81 61 38 357 223 216 251 190 250 118 131 48 5 13 85 37 12 49 21
303 292 282 273 262 252 243 253 256 215 261 226 252 326 294 248 245 269 123 23 245 71 84 320 114 98 83 57 36 22 330 256 271 35 158 204 137 31 54 89 53 52 55 23
306 298 291 283 269 260 254 253 255 249 260 341 56 6 329 321 271 207 26 26 316 304 302 258 225 183 190 81 37 22 6 301 246 267 55 133 46 16 21 353 76 17 6 358
335 331 316 306 288 269 258 250 249 243 262 37 330 311 18 9 324 90 41 10 16 335 269 241 252 118 360 93 36 10 17 18 29 342 93 117 347 328 279 142 151 11 360 351
346 342 337 329 317 301 252 243 247 226 88 26 26 38 346 345 342 314 38 340 350 3 296 285 5 72 20 41 27 354 355 359 32 12 84 98 357 326 315 253 349 336 340 335
5 358 352 347 345 349 314 261 266 180 103 56 59 57 45 16 10 0 330 326 8 358 48 18 35 44 70 90 47 360 36 327 25 351 54 58 6 349 42 323 325 337 337 336
16 12 10 21 23 4 349 79 94 111 91 101 64 55 55 41 7 328 9 61 21 17 331 35 60 38 53 29 57 10 40 13 2 9 26 45 359 37 18 356 337 334 334 331
46 45 49 49 52 76 99 100 96 91 90 63 54 26 46 47 47 51 22 32 28 35 35 67 85 74 14 72 48 48 89 11 24 320 68 351 348 0 349 347 337 328 325 323
56 59 65 61 58 55 85 96 101 104 96 91 49 47 46 46 48 53 77 80 71 68 67 69 54 90 41 52 121 69 334 353 321 271 4 339 6 336 328 327 328 324 318 317
29 346 148 75 76 67 65 86 78 88 107 126 117 46 49 61 68 72 81 85 83 71 54 51 51 47 89 123 117 45 11 4 358 277 313 308 302 312 322 322 322 323 317 320
37 45 70 95 105 79 60 63 62 76 83 84 75 54 39 60 64 73 70 76 73 78 70 82 68 50 70 55 65 49 348 328 335 289 302 303 306 312 316 322 319 319 319 315
52 56 65 67 71 81 75 72 34 69 81 74 110 58 17 34 41 48 51 59 60 60 69 51 60 37 74 85 19 324 330 318 330 323 317 322 319 315 322 324 319 322 320 315
40 50 57 64 65 70 66 62 59 89 78 75 66 23 31 14 7 15 23 33 36 40 69 51 26 46 64 65 317 331 335 323 329 328 325 320 318 316 322 322 321 319 322 319
25 29 35 38 38 39 42 48 50 53 61 82 57 20 336 353 10 1 18 32 50 41 54 28 358 39 76 238 311 329 334 323 317 330 323 318 319 317 323 324 324 321 320 318
36 36 23 31 11 30 33 40 30 31 39 51 62 357 353 354 350 4 17 29 19 53 309 341 75 221 177 269 330 332 335 329 326 324 323 321 323 320 322 322 318 320 317 319
36 28 27 18 28 32 37 41 38 8 43 18 11 18 331 359 29 321 16 290 311 58 298 77 262 6 221 327 339 344 338 331 324 322 317 314 316 314 318 318 315 318 317 321
25 27 30 25 24 31 59 23 23 42 35 358 354 335 352 332 3 322 358 350 32 345 321 54 352 246 337 341 346 341 334 329 327 327 321 320 317 316 314 315 314 318 316 322
36 32 43 11 3 39 41 349 346 5 357 3 336 324 334 360 360 312 342 42 244 312 24 256 215 343 343 343 339 335 333 334 332 333 335 332 327 323 323 319 322 320 317 323
43 36 25 53 12 37 12 307 317 293 303 325 327 305 327 343 348 315 49 255 27 14 12 274 288 343 335 333 335 333 332 335 334 334 335 335 333 329 328 331 329 320 322 326
52 37 45 52 347 320 319 321 327 321 305 320 332 294 322 348 6 31 12 10 352 155 251 256 326 324 325 325 330 329 329 333 335 335 332 333 332 328 328 335 334 331 326 329
49 48 62 360 311 350 347 349 326 332 340 337 345 285 28 14 342 33 355 34 269 268 314 313 315 317 322 325 327 328 331 333 333 334 333 332 335 333 334 337 336 334 332 332
48 41 33 48 350 331 347 357 355 358 7 348 332 49 255 286 344 332 189 224 256 297 307 311 314 319 322 326 329 332 331 332 334 338 335 332 336 338 339 334 338 341 343 334